Voltar ao catálogo

TITAN 3C TRANSTAGE DEB

LostHEO
NORAD 28807·DEBRIS·🇺🇸 United States

Lançado Dec 21, 1965 de Cape Canaveral Space Force Station

Loading…

Próximas Passagens (próximas 24 horas)

TLE

ObsoletoSource: Space-Track

Época: May 30, 2026, 09:53 UTC

1 28807U 65108BZ  26150.41184448  .00004907  00000-0  19630-1 0  9993
2 28807  25.4002 236.1826 6852486 201.2910 104.4063  2.70404482 41714

Acompanhe TITAN 3C TRANSTAGE DEB em tempo real com AllMySat

Download on the App Store